Ketchikan, AK

5:59 AM AKST on December 18, 2018 (GMT -0900)
Ketchikan International

Weather History for PAKT - February, 2018

Change the Weather History Date:

Tuesday, February 27, 2018

  Actual Average Record
Temperature  
Mean Temperature 36 °F -  
Max Temperature 41 °F 45 °F 62 °F (1992)
Min Temperature 32 °F 31 °F 10 °F (1972)
Degree Days  
Heating Degree Days 28    
Moisture  
Dew Point 31 °F    
Average Humidity 85    
Maximum Humidity 96    
Minimum Humidity 61    
Precipitation  
Precipitation 0.03 in - - ()
Sea Level Pressure  
Sea Level Pressure 29.74 in    
Wind  
Wind Speed 5 mph (SSE)    
Max Wind Speed 9 mph    
Max Gust Speed -    
Visibility 9 miles    
Events Rain , Snow    
Averages and records for this station are not official NWS values.
T = Trace of Precipitation, MM = Missing Value Source: NWS Daily Summary

Daily Weather History Graph

Daily Weather History Graph

Search for Another Location

Airport or City:

Astronomy

Feb. 27, 2018 Rise Set
Actual Time 6:41 AM AKST 5:18 PM AKST
Civil Twilight 6:04 AM AKST 5:55 PM AKST
Nautical Twilight 5:22 AM AKST 6:37 PM AKST
Astronomical Twilight 4:40 AM AKST 7:20 PM AKST
Moon 2:28 PM AKST (2/27) 5:41 AM AKST (2/27)
Length of Visible Light 11h 50m
Length of Day
10h 36m
Waxing Gibbous, 94% of the Moon is Illuminated
Feb 27
Waxing Gibbous
Mar 1
Full
Mar 9
Last Quarter
Mar 17
New
Mar 24
First Quarter

Hourly Weather History & Observations

Time (AKST) Temp. Windchill Dew Point Humidity Pressure Visibility Wind Dir Wind Speed Gust Speed Precip Events Conditions
12:53 AM 35.1 °F 30.1 °F 32.0 °F 89% 29.75 in 10.0 mi SE 5.8 mph - N/A   Scattered Clouds
1:53 AM 35.1 °F 31.0 °F 30.9 °F 85% 29.75 in 10.0 mi SSE 4.6 mph - N/A   Scattered Clouds
2:53 AM 35.1 °F 30.1 °F 32.0 °F 89% 29.74 in 10.0 mi South 5.8 mph - 0.00 in Rain Light Rain
3:41 AM 35.1 °F 31.0 °F 33.1 °F 92% 29.72 in 7.0 mi SSE 4.6 mph - 0.00 in   Overcast
3:53 AM 35.1 °F 29.3 °F 33.1 °F 92% 29.73 in 4.0 mi SE 6.9 mph - 0.01 in Snow Light Snow
4:39 AM 35.1 °F 32.2 °F 33.1 °F 92% 29.72 in 5.0 mi SSE 3.5 mph - 0.02 in Snow Light Snow
4:53 AM 35.1 °F 31.0 °F 33.1 °F 92% 29.72 in 9.0 mi SE 4.6 mph - 0.02 in Rain Light Rain
5:02 AM 34.0 °F 26.6 °F 33.1 °F 96% 29.72 in 10.0 mi ESE 9.2 mph - 0.00 in   Overcast
5:53 AM 35.1 °F 30.1 °F 33.1 °F 92% 29.72 in 10.0 mi SSE 5.8 mph - 0.00 in   Overcast
6:02 AM 35.6 °F 29.2 °F 33.8 °F 93% 29.71 in 10.0 mi SE 8.1 mph - N/A   Overcast
6:53 AM 35.6 °F 29.9 °F 33.8 °F 93% 29.72 in 10.0 mi SSE 6.9 mph - N/A Rain Light Rain
7:53 AM 35.6 °F - 33.8 °F 93% 29.73 in 10.0 mi Calm Calm - N/A   Overcast
8:53 AM 37.4 °F - 32.0 °F 81% 29.74 in 10.0 mi Calm Calm - N/A   Overcast
9:53 AM 37.4 °F 32.8 °F 32.0 °F 81% 29.75 in 10.0 mi SE 5.8 mph - N/A   Overcast
10:10 AM 37.4 °F 31.4 °F 32.0 °F 81% 29.76 in 8.0 mi WNW 8.1 mph - N/A Rain Light Rain
10:53 AM 37.4 °F 32.8 °F 33.8 °F 87% 29.77 in 10.0 mi East 5.8 mph - N/A   Overcast
11:53 AM 39.9 °F 36.7 °F 28.9 °F 65% 29.76 in 10.0 mi Variable 4.6 mph - N/A   Overcast
12:53 PM 41.0 °F 38.0 °F 28.9 °F 62% 29.75 in 10.0 mi Variable 4.6 mph - N/A   Mostly Cloudy
1:53 PM 39.2 °F 37.0 °F 28.4 °F 65% 29.76 in 10.0 mi Variable 3.5 mph - N/A   Overcast
2:53 PM 39.2 °F - 26.6 °F 61% 29.77 in 10.0 mi Calm Calm - N/A   Overcast
3:53 PM 37.4 °F 32.8 °F 30.2 °F 75% 29.78 in 10.0 mi SE 5.8 mph - N/A   Mostly Cloudy
4:53 PM 35.6 °F 31.7 °F 30.2 °F 81% 29.75 in 10.0 mi SSE 4.6 mph - N/A   Overcast
5:53 PM 35.1 °F 31.0 °F 30.9 °F 85% 29.75 in 10.0 mi South 4.6 mph - N/A   Overcast
6:53 PM 34.0 °F 31.0 °F 32.0 °F 92% 29.76 in 3.0 mi North 3.5 mph - 0.00 in Snow Light Snow
7:53 PM 32.0 °F - 30.9 °F 96% 29.76 in 10.0 mi Calm Calm - 0.00 in   Scattered Clouds
8:53 PM 33.1 °F 30.0 °F 30.0 °F 89% 29.75 in 10.0 mi South 3.5 mph - N/A   Clear
9:53 PM 33.1 °F - 30.0 °F 89% 29.75 in 10.0 mi Calm Calm - N/A   Clear
10:53 PM 33.1 °F 30.0 °F 30.0 °F 89% 29.73 in 10.0 mi SSE 3.5 mph - N/A   Clear
11:53 PM 33.1 °F 30.0 °F 30.0 °F 89% 29.72 in 10.0 mi SSE 3.5 mph - N/A   Partly Cloudy